Regional Weather Roundup
Issued by NWS

Home | Current Version | Previous Version | Text Only | Print | Product List | Glossary On
Versions: 1 2 3 4 5 6 7 8 9 10 11 12 13 14 15 16 17 18 19 20 21 22 23 24 25 26 27 28 29 30 31 32 33 34 35 36 37 38 39 40 41 42 43 44 45 46 47 48 49 50
552
ASUS43 KTOP 251008
RWRKS

WEATHER ROUNDUP FOR KANSAS
NATIONAL WEATHER SERVICE GOODLAND KS
500 AM CDT THU MAY 25 2017

NOTE:  "FAIR" INDICATES FEW OR NO CLOUDS BELOW 12,000 FEET WITH NO
SIGNIFICANT WEATHER AND/OR OBSTRUCTIONS TO VISIBILITY.

KSZ001>006-013>018-027>032-041>047-251100-
NORTHWEST KANSAS

CITY           SKY/WX    TMP DP  RH WIND       PRES   REMARKS
GOODLAND       CLEAR     53  46  77 S21       29.50F
HAYS           CLEAR     49  45  86 SE10      29.58F
HILL CITY      CLEAR     50  45  83 SE8       29.56F
RUSSELL        CLEAR     53  44  71 S21G29    29.57F
$$

KSZ061>065-074>080-084>089-251100-
SOUTHWEST KANSAS

CITY           SKY/WX    TMP DP  RH WIND       PRES   REMARKS
DODGE CITY     CLEAR     53  44  71 S17       29.59F
ELKHART          N/A     48  40  74 S7          N/A
GARDEN CITY    CLEAR     51  44  77 S14       29.56F
GREAT BEND     CLEAR     51  44  77 SE13      29.60F
LIBERAL        PTCLDY    52  47  83 SE10      29.57F
PRATT          CLEAR     49  42  76 S14       29.62S
$$

KSZ066>073-081>083-090>101-251100-
SOUTHEAST KANSAS

CITY           SKY/WX    TMP DP  RH WIND       PRES   REMARKS
CHANUTE        CLEAR     46  45  96 SE6       29.69S
COFFEYVILLE    PTCLDY    47  47 100 CALM      29.71F
HUTCHINSON     CLEAR     51  44  77 S10       29.64F
MEDICINE LODGE   N/A     52  44  74 SE7       29.63F
NEWTON         CLEAR     49  44  83 SE9       29.67S
PARSONS        CLEAR     45  43  93 CALM      29.72R
WICHITA INTL   CLEAR     51  46  83 SE8       29.65F
WICHITA JABRA  CLEAR     49  44  83 SE6       29.66F
WICHITA MCCONL CLEAR     51  43  73 SE8       29.65F
WINFIELD       CLEAR     50  44  80 SE6       29.69S
$$

KSZ007>012-019>026-033>040-048>060-102>105-251100-
NORTHEAST KANSAS

CITY           SKY/WX    TMP DP  RH WIND       PRES   REMARKS
CONCORDIA      CLEAR     51  45  79 S10       29.62F
EMPORIA        PTCLDY    46  44  93 S8        29.68R
LAWRENCE       CLEAR     45  45 100 E5        29.69S
MANHATTAN      CLEAR     44  43  96 CALM      29.66S
MARYSVILLE     CLEAR     46  45  93 CALM      29.66R
OLATHE IND     CLEAR     46  45  96 S5        29.70S
OLATHE EXE     CLEAR     47  47 100 S3        29.70S
SALINA         CLEAR     49  45  86 S7        29.64S
TOPEKA BILLARD CLEAR     47  47 100 E5        29.68S
TOPEKA FORBES  CLEAR     47  45  93 E5        29.67F
$$




USA.gov is the U.S. government's official web portal to all federal, state and local government web resources and services.